Regional Weather Roundup
Issued by NWS Albany, NY

Home | Current Version | Previous Version | Text Only | Print | Product List | Glossary On
Versions: 1 2 3 4 5 6 7 8 9 10 11 12 13 14 15 16 17 18 19 20 21 22 23 24 25 26 27 28 29 30 31 32 33 34 35 36 37 38 39 40 41 42 43 44 45 46 47 48 49 50
000
ASUS41 KALY 211110
RWRALY

NEW YORK STATE HOURLY WEATHER ROUNDUP
NATIONAL WEATHER SERVICE ALBANY NY
700 AM EDT TUE OCT 21 2014

NOTE: "FAIR" INDICATES FEW OR NO CLOUDS BELOW 12,000 FEET WITH NO
SIGNIFICANT WEATHER AND/OR NO OBSTRUCTIONS TO VISIBILITY.

NYZ032-033-038>043-046>054-057>066-NYZ062>081-211200-
EAST


CITY           SKY/WX    TMP DP  RH WIND       PRES   REMARKS
ALBANY         LGT RAIN  49  46  90 CALM      29.91R
GLENS FALLS    CLOUDY    44  42  93 CALM      29.91S
POUGHKEEPSIE   CLOUDY    49  46  90 CALM      29.90F
NEWBURGH       CLOUDY    50  48  93 CALM      29.90F
MONTGOMERY     LGT RAIN  46  44  93 CALM      29.89F
WHITE PLAINS   CLOUDY    50  46  86 CALM      29.90R
ISLIP          CLOUDY    52  47  83 CALM      29.90R
NEW YORK CITY  CLOUDY    56  45  66 CALM      29.89F
CENTRAL PARK   CLOUDY    55  45  68 CALM      29.92S
$$

NYZ005>009-017-018-044>046-055-056-211200-
CENTRAL


CITY           SKY/WX    TMP DP  RH WIND       PRES   REMARKS
FULTON         LGT RAIN  48  44  86 SE5       29.83R
SYRACUSE       DRIZZLE   49  46  89 E5        29.83S
ROME           LGT RAIN  45  44  97 SE5       29.87S
ELMIRA         LGT RAIN  47  46  97 CALM      29.82R
BINGHAMTON     CLOUDY    47  43  86 S3        29.82F
MONTICELLO     CLOUDY    45  43  93 E6        29.88S
$$

NYZ026>034-041>043-211200-
NORTH


CITY           SKY/WX    TMP DP  RH WIND       PRES   REMARKS
WATERTOWN      CLOUDY    51  42  71 CALM      29.84R
FORT DRUM      NOT AVBL
MASSENA        CLOUDY    44  42  93 E12       29.92S
SARANAC LAKE   LGT RAIN  40  39  97 NE5       29.87S
PLATTSBURGH    LGT RAIN  43  42  97 CALM      29.94R
$$

NYZ001>004-010>016-019>021-211200-
WEST


CITY           SKY/WX    TMP DP  RH WIND       PRES   REMARKS
NIAGARA FALLS  CLOUDY    49  48  97 W6        29.79R FOG
BUFFALO        CLOUDY    50  48  93 W5        29.80R FOG
DUNKIRK        CLOUDY    52  48  86 W8        29.81S
JAMESTOWN      CLOUDY    48  45  87 CALM      29.81S
WELLSVILLE     LGT RAIN  47  44  90 SW9       29.81R
ROCHESTER      RAIN      50  48  93 S5        29.79S FOG
PENN YAN       LGT RAIN  48  32  53 S3        29.81S
$$

             KEY
       WCI = WIND CHILL INDEX
       VSB = VISIBILITY
       HX  = HEAT INDEX
$$



USA.gov is the U.S. government's official web portal to all federal, state and local government web resources and services.